{"data":{"norad_id":55299,"intl_designator":"2023-010AG","name":"STARLINK-5270","alt_names":[],"object_type":"PAYLOAD","status":"ACTIVE","operator":null,"country":"US","launch_date":"2023-01-19","launch_site_code":"AFWTR","launch_vehicle":null,"mission":null,"orbit_class":"UNKNOWN","rcs_meters":null,"size_class":null,"mass_kg":null,"dimensions":null,"purposes":["comms"],"wikipedia_slug":null,"has_3d_model":false,"image_url":null,"decayed_at":null,"tle_current":{"epoch":"2026-05-25T03:16:23.242368Z","epoch_age_seconds":70113,"freshness":"FRESH","line1":"1 55299U 23010AG  26145.13638012  .00000491  00000+0  48967-4 0  9999","line2":"2 55299  69.9989 191.5646 0003654 268.0459  92.0282 14.98330440185605","mean_motion":14.9833044,"eccentricity":0.0003654,"inclination_deg":69.9989,"raan_deg":191.5646,"arg_perigee_deg":268.0459,"mean_anomaly_deg":92.0282,"bstar":4.8967e-5,"rev_number":18560,"period_min":96.106970902894,"perigee_km":569.51493029588,"apogee_km":574.59413026621,"semimajor_km":6950.191530281,"source":"CELESTRAK","updated_at":"2026-05-25T13:38:17.753819Z"}}}